TimeCST,TemperatureF,Dew PointF,Humidity,Sea Level PressureIn,VisibilityMPH,Wind Direction,Wind SpeedMPH,Gust SpeedMPH,PrecipitationIn,Events,Conditions,WindDirDegrees,DateUTC
12:51 AM,37.0,26.1,65,30.15,10.0,ENE,5.8,-,N/A,,Clear,70,2013-01-23 06:51:00
1:51 AM,35.1,25.0,67,30.16,10.0,NE,4.6,-,N/A,,Clear,40,2013-01-23 07:51:00
2:51 AM,30.9,24.1,76,30.17,10.0,West,4.6,-,N/A,,Clear,260,2013-01-23 08:51:00
3:51 AM,30.0,23.0,75,30.16,10.0,WSW,6.9,-,N/A,,Clear,240,2013-01-23 09:51:00
4:51 AM,28.9,21.9,75,30.15,10.0,WSW,5.8,-,N/A,,Clear,250,2013-01-23 10:51:00
5:51 AM,28.0,21.9,78,30.15,10.0,SW,9.2,-,N/A,,Clear,230,2013-01-23 11:51:00
6:51 AM,25.0,21.0,85,30.21,10.0,WSW,5.8,-,N/A,,Clear,250,2013-01-23 12:51:00
7:51 AM,28.0,21.0,75,30.20,10.0,SW,4.6,-,N/A,,Clear,220,2013-01-23 13:51:00
8:51 AM,32.0,23.0,69,30.20,10.0,WSW,4.6,-,N/A,,Clear,240,2013-01-23 14:51:00
9:51 AM,39.0,25.0,57,30.23,10.0,WSW,6.9,-,N/A,,Clear,250,2013-01-23 15:51:00
10:51 AM,46.9,26.1,44,30.22,10.0,Calm,Calm,-,N/A,,Clear,0,2013-01-23 16:51:00
11:51 AM,53.1,27.0,37,30.20,10.0,West,3.5,-,N/A,,Clear,280,2013-01-23 17:51:00
12:51 PM,59.0,26.1,28,30.16,10.0,Variable,3.5,-,N/A,,Clear,0,2013-01-23 18:51:00
1:51 PM,64.9,21.9,19,30.11,10.0,Variable,4.6,-,N/A,,Clear,0,2013-01-23 19:51:00
3:51 PM,70.0,17.1,13,30.06,10.0,South,5.8,-,N/A,,Clear,180,2013-01-23 21:51:00
4:51 PM,71.1,15.1,12,30.07,10.0,Calm,Calm,-,N/A,,Clear,0,2013-01-23 22:51:00
5:51 PM,69.1,16.0,13,30.08,10.0,Calm,Calm,-,N/A,,Clear,0,2013-01-23 23:51:00
6:51 PM,63.0,17.1,17,30.10,10.0,South,4.6,-,N/A,,Clear,190,2013-01-24 00:51:00
7:51 PM,60.1,18.0,20,30.11,10.0,SW,4.6,-,N/A,,Clear,220,2013-01-24 01:51:00
8:51 PM,53.1,19.9,27,30.12,10.0,South,6.9,-,N/A,,Clear,170,2013-01-24 02:51:00
9:51 PM,53.1,21.0,29,30.12,10.0,SSE,3.5,-,N/A,,Clear,160,2013-01-24 03:51:00
10:51 PM,52.0,24.1,34,30.09,10.0,South,10.4,-,N/A,,Clear,180,2013-01-24 04:51:00
11:51 PM,41.0,21.9,47,30.12,10.0,North,6.9,-,N/A,,Clear,10,2013-01-24 05:51:00